SCP
-0 -0 -0 -0 -0 -0 -0 -0 -0 -0 -0 -0 -0 -0 -0 -0 -0 -0 0 0 0 0 0 0 0 -0 -0 -0 -0 -0 -0 -0 -0 -0 -0 -0 -0 -0 -0 -0 -0 0 -0
-0 0 -0 -0 -0 -0 -0 -0 -0 -0 -0 -0 -0 -0 -0 -0 -0 -0 -0 -0 -0 -0 -0 -0 -0 -0 -0 -0 -0 -0 -0 -0 -0 -0 -0 -0 -0 -0 -0 -0 -0 -0 -0
-0 0 -0 -0 -0 -0 -0 -0 -0 -0 -0 -0 -0 -0 -0 -0 -0 -0 -0 -0 -0 -0 -0 -0 -0 -0 -0 -0 -0 -0 -0 -0 -0 -0 -0 0 -0 -0 -0 -0 -0 -0 -0
-0 -0 -0 -0 -0 -0 -0 -0 -0 -0 -0 -0 -0 -0 -0 -0 -0 -0 -0 -0 -0 -0 -0 -0 -0 -0 -0 -0 -0 -0 -0 -0 -0 -0 0 0 0 -0 -0 -0 -0 -0 -0
-0 -0 -0 -0 -0 -0 -0 -0 -0 -0 -0 -0 -0 -0 -0 -0 -0 -0 -0 -0 -0 -0 -0 -0 -0 -0 -0 -0 -0 -0 -0 -0 -0 -0 0 0 0 -0 -0 -0 -0 -0 0
-0 -0 -0 -0 -0 -0 -0 -0 -0 -0 -0 -0 -0 -0 -0 -0 -0 -0 -0 -0 -0 -0 -0 -0 -0 -0 -0 -0 -0 -0 -0 -0 0 0 0 0 0 -0 -0 -0 -0 0 0
-0 -0 -0 -0 -0 -0 -0 -0 -0 -0 -0 -0 -0 -0 -0 -0 -0 -0 -0 -0 -0 -0 -0 -0 -0 -0 -0 -0 -0 -0 -0 -0 0 0 0 0 0 0 0 0 0 0 0
-0 -0 -0 -0 -0 -0 -0 -0 -0 -0 -0 -0 -0 -0 -0 -0 -0 -0 -0 -0 -0 -0 -0 -0 -0 -0 -0 -0 -0 -0 -0 -0 0 0 0 0 0 0 0 0 0 0 0
0 0 0 -0 -0 -0 -0 -0 -0 -0 -0 -0 -0 -0 -0 -0 -0 -0 -0 -0 -0 -0 -0 -0 -0 -0 -0 -0 -0 -0 -0 -0 0 0 0 0 0 0 0 0 0 0 0
0 0 0 0 0 0 0 -0 -0 -0 -0 -0 -0 -0 -0 -0 -0 0 0 0 -0 0 0 0 -0 -0 -0 -0 -0 -0 -0 0 0 0 0 0 0 0 0 0 0 0 0
0 0 0 0 0 0 0 0 0 0 -0 -0 -0 -0 -0 0 0 0 0 0 0 0 0 0 -0 0 0 -0 -0 0 0 0 0 0 0 0 0 0 0 0 0 0 0
0 0 0 0 0 0 0 0 0 0 0 0 0 0 0 0 0 0 0 0 0 0 0 0 0 0 0 0 0 0 0 0 0 0 0 0 0 0 0 0 0 0 0
0 0 0 0 0 0 0 0 0 0 0 0 0 0 0 0 0 0 0 0 0 0 0 0 0 0 0 0 0 0 0 0 0 0 0 0 0 0 0 0 0 0 0
0 0 0 0 0 0 0 0 0 0 0 0 0 0 0 0 0 0 0 0 0 0 0 0 0 0 0 0 0 0 0 0 0 0 0 0 0 0 0 0 0 0 0
0 0 0 0 0 0 0 0 0 0 0 0 0 0 0 0 0 0 0 0 0 0 0 0 0 0 0 0 0 0 0 0 0 0 0 0 0 0 0 0 0 0 0
0 0 0 0 0 0 0 0 0 0 0 0 0 0 0 0 0 0 0 0 0 0 0 0 0 0 0 0 0 0 0 0 0 0 0 0 0 0 0 0 0 0 0
0 0 0 0 0 0 0 0 0 0 0 0 0 0 0 0 0 0 0 0 0 0 0 0 0 0 0 0 0 0 0 0 0 0 0 0 0 0 0 0 0 0 0
0 0 0 0 0 0 0 0 0 0 0 0 0 0 0 0 0 0 0 0 0 0 0 0 0 0 0 0 0 0 0 0 0 0 0 0 0 0 0 0 0 0 0
0 0 0 0 0 0 0 0 0 0 0 0 0 0 0 0 0 0 0 0 0 0 0 0 0 0 0 0 0 0 0 0 0 0 0 0 0 0 0 0 0 0 0
0 0 0 0 0 0 0 0 0 0 0 0 0 0 0 0 0 0 0 0 0 0 0 0 0 0 0 0 0 0 0 0 0 0 0 0 0 0 0 0 0 0 0
0 0 0 0 0 0 0 0 0 0 0 0 0 0 0 0 0 0 0 0 0 0 0 0 0 0 0 0 0 0 0 0 0 0 0 0 0 0 0 0 0 0 0
0 0 0 0 0 0 0 0 0 0 0 0 0 0 0 0 0 0 0 0 0 0 0 0 0 0 0 0 0 0 0 0 0 0 0 0 0 0 0 0 0 0 0
0 0 0 0 0 0 0 0 0 0 0 0 0 0 0 0 0 0 0 0 0 0 0 0 0 0 0 0 0 0 0 0 0 0 0 0 0 0 0 0 0 0 0
0 0 0 0 0 0 0 0 0 0 0 0 0 0 0 0 0 0 0 0 0 0 0 0 0 0 0 0 0 0 0 0 0 0 0 0 0 0 0 0 0 0 0
0 0 0 0 0 0 0 0 0 0 0 0 0 0 0 0 0 0 0 0 0 0 0 0 0 0 0 0 0 0 0 0 0 0 0 0 0 0 0 0 0 0 0
0 0 0 0 0 0 0 0 0 0 0 0 0 0 0 0 0 0 0 0 0 0 0 0 0 0 0 0 0 0 0 0 0 0 0 0 0 0 0 0 0 0 0
Wind_Speed_500mb
23 25 25 24 25 25 24 22 21 23 21 17 18 22 23 28 28 29 28 26 24 23 21 22 22 22 22 24 25 25 25 24 24 21 18 21 26 30 31 29 30 33 31
22 28 27 26 24 22 22 20 20 20 19 14 15 18 22 23 23 25 25 23 20 19 20 21 22 21 20 21 23 25 24 26 29 26 19 15 15 16 18 20 27 33 29
22 31 30 26 23 21 19 17 17 16 15 11 11 16 21 23 23 24 24 23 18 19 20 20 19 18 17 16 20 22 25 22 25 27 24 20 20 16 15 15 13 12 20
25 31 30 27 24 22 20 18 16 11 9 7 8 13 18 20 23 23 26 25 21 20 19 19 17 17 18 16 17 20 23 23 25 22 22 24 23 23 22 21 19 18 17
27 29 27 26 25 24 23 20 16 12 8 7 8 9 14 17 20 23 26 25 23 21 19 18 15 16 16 16 15 18 21 18 21 25 27 33 27 26 25 23 22 21 21
29 26 27 24 23 23 22 20 18 13 9 7 9 7 10 15 18 22 25 24 22 21 20 18 17 16 15 15 16 13 16 13 13 21 24 27 27 29 27 26 25 24 23
31 27 27 23 21 22 22 20 18 13 10 9 11 8 8 11 13 18 21 21 20 20 20 19 18 16 15 14 14 12 10 9 12 19 22 24 26 26 26 25 25 25 24
27 30 26 26 24 19 20 23 22 19 15 12 13 10 6 6 10 14 18 20 19 19 20 20 19 17 16 14 11 9 8 13 13 14 17 20 23 24 25 25 26 25 25
35 37 32 30 28 27 24 21 22 20 17 16 16 13 9 5 5 10 16 19 20 20 20 22 21 18 17 16 14 12 11 12 13 15 16 17 20 21 21 21 22 23 23
40 41 36 33 33 37 34 26 22 20 20 19 18 15 10 7 6 10 14 19 21 22 23 22 21 19 16 16 15 14 14 13 13 14 16 19 19 21 22 23 24 24 23
42 43 44 38 39 39 34 29 25 22 20 20 19 17 14 8 10 2 9 15 22 24 25 25 23 20 18 17 17 16 13 12 14 14 13 14 14 15 15 16 17 18 24
45 46 49 42 43 43 38 34 30 29 26 22 21 21 21 18 13 10 1 8 13 19 21 22 24 23 20 20 19 16 15 17 14 13 14 14 14 13 13 13 14 15 16
46 49 49 47 44 44 45 42 36 34 33 32 28 27 26 25 20 17 13 7 1 5 10 14 17 18 16 16 14 12 14 13 15 16 16 14 13 16 18 17 17 18 19
49 48 51 51 49 47 40 46 44 42 43 43 38 31 35 32 29 24 19 15 12 5 3 6 5 6 8 7 6 7 8 11 13 14 15 15 12 9 15 25 33 35 31
49 48 51 53 54 54 52 50 49 49 47 46 41 39 39 36 35 29 28 24 17 11 6 5 5 3 3 4 3 5 7 11 14 16 16 16 17 17 18 19 19 18 22
48 48 49 52 52 54 56 56 56 49 50 48 45 42 43 39 38 39 41 25 19 14 11 12 11 10 3 2 3 5 8 11 14 18 21 23 25 25 25 25 26 27 30
46 45 44 45 47 51 56 57 59 57 52 49 46 48 47 45 38 40 38 33 22 20 18 17 14 14 7 3 0 3 6 11 15 19 23 26 28 30 30 32 32 32 32
51 48 46 44 44 47 50 52 57 61 60 55 52 41 49 46 44 38 39 29 32 27 25 24 19 12 11 7 3 7 9 12 18 19 21 23 25 27 28 31 31 30 29
55 54 50 47 45 45 51 56 57 56 56 61 55 54 48 44 42 48 42 36 33 29 28 23 17 14 12 10 14 17 16 16 16 18 19 21 24 27 30 32 33 33 33
60 57 54 49 47 49 53 58 58 58 56 51 45 45 49 47 49 49 41 38 36 30 26 22 18 17 18 22 26 22 18 15 14 13 16 20 25 29 32 33 34 37 37
63 61 57 52 50 49 55 64 62 59 59 56 53 48 48 50 51 47 43 41 33 28 24 18 20 25 29 27 23 22 16 10 5 8 15 21 27 33 34 35 38 39 39
66 60 57 54 51 49 52 65 63 60 58 57 52 46 46 49 47 41 39 37 34 29 25 25 20 26 30 28 19 13 13 6 7 7 12 20 30 34 36 38 39 40 41
74 69 61 55 50 50 56 65 60 63 64 59 56 48 50 47 44 41 38 35 34 32 32 27 24 19 23 23 20 9 8 8 7 10 8 18 28 32 34 36 40 44 47
81 67 59 55 54 55 56 60 68 64 68 65 58 51 51 49 43 41 40 40 40 37 32 30 29 24 18 15 15 10 7 6 5 5 4 15 25 29 33 36 39 43 47
79 68 62 59 56 55 61 62 67 76 68 66 61 56 57 50 46 46 46 45 42 39 34 28 24 19 14 9 8 7 3 2 4 2 2 19 21 27 31 35 40 42 47
76 67 65 63 58 61 67 70 78 71 73 72 64 62 60 57 58 56 52 46 40 35 30 26 20 14 9 5 3 4 6 7 8 11 16 23 26 26 29 34 36 42 48
Wind_Direction_500mb
172 166 161 154 146 144 143 136 116 111 98 92 85 77 69 57 56 56 53 57 54 59 63 69 76 85 88 83 78 68 65 60 62 66 71 74 82 77 76 78 75 64 60
170 168 170 163 154 148 144 136 125 114 106 107 93 74 61 55 55 53 50 49 57 68 69 70 78 82 83 86 74 60 66 55 63 63 72 68 74 78 75 72 76 76 67
168 170 171 170 164 157 153 146 132 124 123 122 84 58 52 52 49 50 50 49 59 66 68 73 79 91 92 95 76 62 59 52 59 54 59 58 59 64 59 54 49 57 76
173 170 170 172 171 169 167 163 156 144 124 112 96 61 45 57 56 50 51 56 61 64 64 69 76 92 104 107 96 75 65 65 49 57 52 52 50 59 53 47 44 41 35
170 175 171 174 176 176 177 178 175 167 149 137 128 83 54 57 60 58 54 54 58 66 70 71 78 89 103 111 107 87 77 65 45 47 46 45 44 52 47 45 42 41 37
165 177 178 182 183 184 186 186 185 180 171 162 160 121 83 78 63 54 51 51 53 57 61 66 75 88 104 112 113 96 80 72 22 26 26 28 34 40 39 38 36 36 35
171 182 181 184 187 190 196 200 199 197 191 183 175 155 96 87 67 53 47 48 53 57 58 58 61 72 86 103 113 107 89 40 9 10 20 29 34 37 37 37 36 34 32
168 174 190 198 197 192 210 204 203 203 201 191 189 179 134 104 69 53 49 51 53 59 65 67 67 68 76 81 88 80 52 36 31 31 29 35 37 35 34 33 32 31 30
176 177 193 206 200 207 220 221 212 209 205 195 194 195 180 149 93 66 62 62 63 66 67 67 68 71 75 81 82 76 63 55 51 52 47 41 37 33 32 34 35 36 33
188 191 194 205 215 211 216 219 217 217 213 205 203 208 205 184 135 80 68 60 74 82 84 86 85 84 86 95 98 91 80 72 66 58 50 42 34 29 25 22 21 21 23
202 202 202 198 210 217 219 216 207 205 217 220 208 210 210 217 150 138 48 60 69 80 90 87 82 81 82 85 84 80 78 71 61 51 44 44 37 32 30 28 25 21 38
209 213 215 216 209 211 209 211 210 216 216 220 217 218 222 221 215 213 205 74 57 78 88 86 81 84 92 89 87 88 82 70 58 52 45 36 24 13 5 5 0 0 5
219 222 224 222 217 215 219 213 215 219 215 220 218 215 229 222 220 218 206 171 89 74 86 87 82 84 95 95 93 85 72 63 52 46 45 37 30 18 15 13 5 360 359
224 225 224 224 223 223 218 212 211 215 218 218 218 221 227 224 229 218 211 196 177 164 90 91 87 84 102 108 78 43 42 34 30 28 29 18 14 21 40 46 45 40 29
227 225 225 226 226 229 227 217 208 216 221 225 225 227 228 225 214 219 206 196 196 196 212 230 292 285 203 187 29 16 13 16 15 14 17 15 13 14 15 12 8 11 27
230 228 226 223 223 224 224 221 214 215 219 222 220 225 232 230 221 227 219 205 210 226 244 260 262 239 234 252 349 14 4 12 25 37 50 52 51 49 46 38 32 27 27
233 228 224 223 224 226 226 223 213 218 219 222 221 226 223 227 227 218 231 212 215 232 244 249 238 236 194 182 38 31 60 59 60 67 63 58 56 54 51 46 41 36 32
229 227 226 226 226 226 225 218 212 218 223 223 220 221 228 223 220 221 216 230 228 228 230 227 230 214 182 169 163 124 97 82 79 70 62 54 46 39 32 31 24 21 20
230 231 232 232 231 227 222 213 211 212 219 222 230 224 213 208 224 212 212 210 237 216 219 216 198 196 189 185 151 130 110 103 89 74 61 45 32 21 14 10 7 5 4
231 231 232 234 234 228 220 213 211 212 215 221 217 221 216 214 211 208 214 222 215 215 214 190 195 191 175 159 144 131 117 103 90 71 45 28 16 9 5 1 357 356 356
229 230 233 235 234 229 217 204 207 210 211 212 213 216 211 212 210 212 211 209 206 193 190 186 181 167 156 157 158 138 132 121 87 34 21 12 8 6 2 359 358 357 357
231 233 234 234 234 227 214 208 206 206 210 211 202 212 206 200 204 202 201 196 190 189 180 163 166 167 162 160 168 155 159 201 253 310 344 357 1 359 353 356 355 355 354
229 229 229 228 228 217 207 199 206 207 200 198 196 203 201 195 190 190 190 191 186 179 172 164 162 175 180 182 192 210 186 209 229 272 305 345 351 353 356 358 0 359 359
228 225 225 223 220 214 209 210 208 202 204 194 193 199 197 186 190 190 187 180 175 172 176 175 168 170 165 167 166 180 192 203 194 229 274 337 356 359 0 359 359 358 354
224 222 220 218 217 209 204 204 210 206 200 202 195 197 196 190 188 183 177 176 177 179 179 176 168 170 168 166 154 160 138 79 6 345 300 339 360 9 0 357 357 354 349
219 217 215 215 212 206 209 208 211 208 207 196 195 196 195 188 181 177 178 178 180 179 175 174 173 165 150 130 78 25 5 1 354 360 349 348 351 354 357 351 349 346 345
Wind_Speed_850mb
23 25 25 24 25 25 24 22 21 23 21 17 18 22 23 28 28 29 28 26 24 23 21 22 22 22 22 24 25 25 25 24 24 21 18 21 26 30 31 29 30 33 31
22 28 27 26 24 22 22 20 20 20 19 14 15 18 22 23 23 25 25 23 20 19 20 21 22 21 20 21 23 25 24 26 29 26 19 15 15 16 18 20 27 33 29
22 31 30 26 23 21 19 17 17 16 15 11 11 16 21 23 23 24 24 23 18 19 20 20 19 18 17 16 20 22 25 22 25 27 24 20 20 16 15 15 13 12 20
25 31 30 27 24 22 20 18 16 11 9 7 8 13 18 20 23 23 26 25 21 20 19 19 17 17 18 16 17 20 23 23 25 22 22 24 23 23 22 21 19 18 17
27 29 27 26 25 24 23 20 16 12 8 7 8 9 14 17 20 23 26 25 23 21 19 18 15 16 16 16 15 18 21 18 21 25 27 33 27 26 25 23 22 21 21
29 26 27 24 23 23 22 20 18 13 9 7 9 7 10 15 18 22 25 24 22 21 20 18 17 16 15 15 16 13 16 13 13 21 24 27 27 29 27 26 25 24 23
31 27 27 23 21 22 22 20 18 13 10 9 11 8 8 11 13 18 21 21 20 20 20 19 18 16 15 14 14 12 10 9 12 19 22 24 26 26 26 25 25 25 24
27 30 26 26 24 19 20 23 22 19 15 12 13 10 6 6 10 14 18 20 19 19 20 20 19 17 16 14 11 9 8 13 13 14 17 20 23 24 25 25 26 25 25
35 37 32 30 28 27 24 21 22 20 17 16 16 13 9 5 5 10 16 19 20 20 20 22 21 18 17 16 14 12 11 12 13 15 16 17 20 21 21 21 22 23 23
40 41 36 33 33 37 34 26 22 20 20 19 18 15 10 7 6 10 14 19 21 22 23 22 21 19 16 16 15 14 14 13 13 14 16 19 19 21 22 23 24 24 23
42 43 44 38 39 39 34 29 25 22 20 20 19 17 14 8 10 2 9 15 22 24 25 25 23 20 18 17 17 16 13 12 14 14 13 14 14 15 15 16 17 18 24
45 46 49 42 43 43 38 34 30 29 26 22 21 21 21 18 13 10 1 8 13 19 21 22 24 23 20 20 19 16 15 17 14 13 14 14 14 13 13 13 14 15 16
46 49 49 47 44 44 45 42 36 34 33 32 28 27 26 25 20 17 13 7 1 5 10 14 17 18 16 16 14 12 14 13 15 16 16 14 13 16 18 17 17 18 19
49 48 51 51 49 47 40 46 44 42 43 43 38 31 35 32 29 24 19 15 12 5 3 6 5 6 8 7 6 7 8 11 13 14 15 15 12 9 15 25 33 35 31
49 48 51 53 54 54 52 50 49 49 47 46 41 39 39 36 35 29 28 24 17 11 6 5 5 3 3 4 3 5 7 11 14 16 16 16 17 17 18 19 19 18 22
48 48 49 52 52 54 56 56 56 49 50 48 45 42 43 39 38 39 41 25 19 14 11 12 11 10 3 2 3 5 8 11 14 18 21 23 25 25 25 25 26 27 30
46 45 44 45 47 51 56 57 59 57 52 49 46 48 47 45 38 40 38 33 22 20 18 17 14 14 7 3 0 3 6 11 15 19 23 26 28 30 30 32 32 32 32
51 48 46 44 44 47 50 52 57 61 60 55 52 41 49 46 44 38 39 29 32 27 25 24 19 12 11 7 3 7 9 12 18 19 21 23 25 27 28 31 31 30 29
55 54 50 47 45 45 51 56 57 56 56 61 55 54 48 44 42 48 42 36 33 29 28 23 17 14 12 10 14 17 16 16 16 18 19 21 24 27 30 32 33 33 33
60 57 54 49 47 49 53 58 58 58 56 51 45 45 49 47 49 49 41 38 36 30 26 22 18 17 18 22 26 22 18 15 14 13 16 20 25 29 32 33 34 37 37
63 61 57 52 50 49 55 64 62 59 59 56 53 48 48 50 51 47 43 41 33 28 24 18 20 25 29 27 23 22 16 10 5 8 15 21 27 33 34 35 38 39 39
66 60 57 54 51 49 52 65 63 60 58 57 52 46 46 49 47 41 39 37 34 29 25 25 20 26 30 28 19 13 13 6 7 7 12 20 30 34 36 38 39 40 41
74 69 61 55 50 50 56 65 60 63 64 59 56 48 50 47 44 41 38 35 34 32 32 27 24 19 23 23 20 9 8 8 7 10 8 18 28 32 34 36 40 44 47
81 67 59 55 54 55 56 60 68 64 68 65 58 51 51 49 43 41 40 40 40 37 32 30 29 24 18 15 15 10 7 6 5 5 4 15 25 29 33 36 39 43 47
79 68 62 59 56 55 61 62 67 76 68 66 61 56 57 50 46 46 46 45 42 39 34 28 24 19 14 9 8 7 3 2 4 2 2 19 21 27 31 35 40 42 47
76 67 65 63 58 61 67 70 78 71 73 72 64 62 60 57 58 56 52 46 40 35 30 26 20 14 9 5 3 4 6 7 8 11 16 23 26 26 29 34 36 42 48
Wind_Direction_850mb
172 166 161 154 146 144 143 136 116 111 98 92 85 77 69 57 56 56 53 57 54 59 63 69 76 85 88 83 78 68 65 60 62 66 71 74 82 77 76 78 75 64 60
170 168 170 163 154 148 144 136 125 114 106 107 93 74 61 55 55 53 50 49 57 68 69 70 78 82 83 86 74 60 66 55 63 63 72 68 74 78 75 72 76 76 67
168 170 171 170 164 157 153 146 132 124 123 122 84 58 52 52 49 50 50 49 59 66 68 73 79 91 92 95 76 62 59 52 59 54 59 58 59 64 59 54 49 57 76
173 170 170 172 171 169 167 163 156 144 124 112 96 61 45 57 56 50 51 56 61 64 64 69 76 92 104 107 96 75 65 65 49 57 52 52 50 59 53 47 44 41 35
170 175 171 174 176 176 177 178 175 167 149 137 128 83 54 57 60 58 54 54 58 66 70 71 78 89 103 111 107 87 77 65 45 47 46 45 44 52 47 45 42 41 37
165 177 178 182 183 184 186 186 185 180 171 162 160 121 83 78 63 54 51 51 53 57 61 66 75 88 104 112 113 96 80 72 22 26 26 28 34 40 39 38 36 36 35
171 182 181 184 187 190 196 200 199 197 191 183 175 155 96 87 67 53 47 48 53 57 58 58 61 72 86 103 113 107 89 40 9 10 20 29 34 37 37 37 36 34 32
168 174 190 198 197 192 210 204 203 203 201 191 189 179 134 104 69 53 49 51 53 59 65 67 67 68 76 81 88 80 52 36 31 31 29 35 37 35 34 33 32 31 30
176 177 193 206 200 207 220 221 212 209 205 195 194 195 180 149 93 66 62 62 63 66 67 67 68 71 75 81 82 76 63 55 51 52 47 41 37 33 32 34 35 36 33
188 191 194 205 215 211 216 219 217 217 213 205 203 208 205 184 135 80 68 60 74 82 84 86 85 84 86 95 98 91 80 72 66 58 50 42 34 29 25 22 21 21 23
202 202 202 198 210 217 219 216 207 205 217 220 208 210 210 217 150 138 48 60 69 80 90 87 82 81 82 85 84 80 78 71 61 51 44 44 37 32 30 28 25 21 38
209 213 215 216 209 211 209 211 210 216 216 220 217 218 222 221 215 213 205 74 57 78 88 86 81 84 92 89 87 88 82 70 58 52 45 36 24 13 5 5 0 0 5
219 222 224 222 217 215 219 213 215 219 215 220 218 215 229 222 220 218 206 171 89 74 86 87 82 84 95 95 93 85 72 63 52 46 45 37 30 18 15 13 5 360 359
224 225 224 224 223 223 218 212 211 215 218 218 218 221 227 224 229 218 211 196 177 164 90 91 87 84 102 108 78 43 42 34 30 28 29 18 14 21 40 46 45 40 29
227 225 225 226 226 229 227 217 208 216 221 225 225 227 228 225 214 219 206 196 196 196 212 230 292 285 203 187 29 16 13 16 15 14 17 15 13 14 15 12 8 11 27
230 228 226 223 223 224 224 221 214 215 219 222 220 225 232 230 221 227 219 205 210 226 244 260 262 239 234 252 349 14 4 12 25 37 50 52 51 49 46 38 32 27 27
233 228 224 223 224 226 226 223 213 218 219 222 221 226 223 227 227 218 231 212 215 232 244 249 238 236 194 182 38 31 60 59 60 67 63 58 56 54 51 46 41 36 32
229 227 226 226 226 226 225 218 212 218 223 223 220 221 228 223 220 221 216 230 228 228 230 227 230 214 182 169 163 124 97 82 79 70 62 54 46 39 32 31 24 21 20
230 231 232 232 231 227 222 213 211 212 219 222 230 224 213 208 224 212 212 210 237 216 219 216 198 196 189 185 151 130 110 103 89 74 61 45 32 21 14 10 7 5 4
231 231 232 234 234 228 220 213 211 212 215 221 217 221 216 214 211 208 214 222 215 215 214 190 195 191 175 159 144 131 117 103 90 71 45 28 16 9 5 1 357 356 356
229 230 233 235 234 229 217 204 207 210 211 212 213 216 211 212 210 212 211 209 206 193 190 186 181 167 156 157 158 138 132 121 87 34 21 12 8 6 2 359 358 357 357
231 233 234 234 234 227 214 208 206 206 210 211 202 212 206 200 204 202 201 196 190 189 180 163 166 167 162 160 168 155 159 201 253 310 344 357 1 359 353 356 355 355 354
229 229 229 228 228 217 207 199 206 207 200 198 196 203 201 195 190 190 190 191 186 179 172 164 162 175 180 182 192 210 186 209 229 272 305 345 351 353 356 358 0 359 359
228 225 225 223 220 214 209 210 208 202 204 194 193 199 197 186 190 190 187 180 175 172 176 175 168 170 165 167 166 180 192 203 194 229 274 337 356 359 0 359 359 358 354
224 222 220 218 217 209 204 204 210 206 200 202 195 197 196 190 188 183 177 176 177 179 179 176 168 170 168 166 154 160 138 79 6 345 300 339 360 9 0 357 357 354 349
219 217 215 215 212 206 209 208 211 208 207 196 195 196 195 188 181 177 178 178 180 179 175 174 173 165 150 130 78 25 5 1 354 360 349 348 351 354 357 351 349 346 345